QPF
0.00 0.00 0.00 0.00 0.00 0.00 0.00 0.00 0.00 0.00 0.00 0.00 0.00 0.00 0.00 0.00 0.00 0.00 0.00 0.00 0.00 0.00 0.00 0.00 0.00 0.00 0.00 0.00 0.00 0.00 0.00 0.00 0.00 0.00 0.00 0.00 0.00 0.00 0.00 0.00 0.00 0.00 0.00 0.01 0.00
0.00 0.00 0.00 0.00 0.00 0.00 0.00 0.00 0.00 0.00 0.00 0.00 0.00 0.00 0.00 0.00 0.00 0.00 0.00 0.00 0.00 0.00 0.00 0.00 0.00 0.00 0.00 0.00 0.00 0.00 0.00 0.00 0.00 0.00 0.00 0.00 0.00 0.00 0.00 0.00 0.00 0.02 0.01 0.01 0.01
0.00 0.00 0.00 0.00 0.00 0.00 0.00 0.00 0.00 0.00 0.00 0.00 0.00 0.00 0.00 0.00 0.00 0.00 0.00 0.00 0.00 0.00 0.00 0.00 0.00 0.00 0.00 0.00 0.00 0.00 0.00 0.00 0.00 0.00 0.00 0.00 0.00 0.00 0.00 0.00 0.00 0.00 0.02 0.02 0.05
0.00 0.00 0.00 0.00 0.00 0.00 0.00 0.00 0.00 0.00 0.00 0.00 0.00 0.00 0.00 0.00 0.00 0.00 0.00 0.00 0.00 0.00 0.00 0.00 0.00 0.00 0.00 0.00 0.00 0.00 0.00 0.00 0.00 0.00 0.00 0.00 0.00 0.00 0.00 0.00 0.00 0.01 0.08 0.15 0.14
0.00 0.00 0.00 0.00 0.00 0.00 0.00 0.00 0.00 0.00 0.00 0.00 0.00 0.00 0.00 0.00 0.00 0.00 0.00 0.00 0.00 0.00 0.00 0.00 0.00 0.00 0.00 0.00 0.00 0.00 0.00 0.00 0.00 0.00 0.00 0.00 0.00 0.00 0.00 0.00 0.01 0.04 0.14 0.16 0.13
0.00 0.00 0.00 0.00 0.00 0.00 0.00 0.00 0.00 0.00 0.00 0.00 0.00 0.00 0.00 0.00 0.00 0.00 0.00 0.00 0.00 0.00 0.00 0.00 0.00 0.00 0.00 0.00 0.00 0.00 0.00 0.00 0.00 0.00 0.00 0.00 0.00 0.00 0.00 0.00 0.01 0.03 0.08 0.12 0.16
0.00 0.00 0.00 0.00 0.00 0.00 0.00 0.00 0.00 0.00 0.00 0.00 0.00 0.00 0.00 0.00 0.00 0.00 0.00 0.00 0.00 0.00 0.00 0.00 0.00 0.00 0.00 0.00 0.00 0.00 0.00 0.00 0.00 0.00 0.00 0.00 0.00 0.00 0.00 0.00 0.00 0.01 0.01 0.02 0.06
0.00 0.00 0.00 0.00 0.00 0.00 0.00 0.00 0.00 0.00 0.00 0.00 0.00 0.00 0.00 0.00 0.00 0.00 0.00 0.00 0.00 0.00 0.00 0.00 0.00 0.00 0.00 0.00 0.00 0.00 0.00 0.00 0.00 0.00 0.00 0.00 0.00 0.00 0.00 0.00 0.00 0.00 0.00 0.00 0.00
0.00 0.00 0.00 0.00 0.00 0.00 0.00 0.00 0.00 0.00 0.00 0.00 0.00 0.00 0.00 0.00 0.00 0.00 0.00 0.00 0.00 0.00 0.00 0.00 0.00 0.00 0.00 0.00 0.00 0.00 0.00 0.00 0.00 0.00 0.00 0.00 0.00 0.00 0.00 0.00 0.00 0.00 0.00 0.00 0.00
0.00 0.00 0.00 0.00 0.00 0.00 0.00 0.00 0.00 0.00 0.00 0.00 0.00 0.00 0.00 0.00 0.00 0.00 0.00 0.00 0.00 0.00 0.00 0.00 0.00 0.00 0.00 0.00 0.00 0.00 0.00 0.00 0.00 0.00 0.00 0.00 0.00 0.00 0.00 0.00 0.00 0.00 0.00 0.00 0.00
0.00 0.00 0.00 0.00 0.00 0.00 0.00 0.00 0.00 0.00 0.00 0.00 0.00 0.00 0.00 0.00 0.00 0.00 0.00 0.00 0.00 0.00 0.00 0.00 0.00 0.00 0.00 0.00 0.00 0.00 0.00 0.00 0.00 0.00 0.00 0.00 0.00 0.00 0.00 0.00 0.00 0.00 0.00 0.00 0.00
0.00 0.00 0.00 0.00 0.00 0.00 0.00 0.00 0.00 0.00 0.00 0.00 0.00 0.00 0.00 0.00 0.00 0.00 0.00 0.00 0.00 0.00 0.00 0.00 0.00 0.00 0.00 0.00 0.00 0.00 0.00 0.00 0.00 0.00 0.00 0.00 0.00 0.00 0.00 0.00 0.00 0.00 0.00 0.00 0.00
0.00 0.00 0.00 0.00 0.00 0.00 0.00 0.00 0.00 0.00 0.00 0.00 0.00 0.00 0.00 0.00 0.00 0.00 0.00 0.00 0.00 0.00 0.00 0.00 0.00 0.00 0.00 0.00 0.00 0.00 0.00 0.00 0.00 0.00 0.00 0.00 0.00 0.00 0.00 0.00 0.00 0.00 0.00 0.00 0.00
0.00 0.00 0.00 0.00 0.00 0.00 0.00 0.00 0.00 0.00 0.00 0.00 0.00 0.00 0.00 0.00 0.00 0.00 0.00 0.00 0.00 0.00 0.00 0.00 0.00 0.00 0.00 0.00 0.00 0.00 0.00 0.00 0.00 0.00 0.00 0.00 0.00 0.00 0.00 0.00 0.00 0.00 0.00 0.00 0.00
0.00 0.00 0.00 0.00 0.00 0.00 0.00 0.00 0.00 0.00 0.00 0.00 0.00 0.00 0.00 0.00 0.00 0.00 0.00 0.00 0.00 0.00 0.00 0.00 0.00 0.00 0.00 0.00 0.00 0.00 0.00 0.00 0.00 0.00 0.00 0.00 0.00 0.00 0.00 0.00 0.00 0.00 0.00 0.00 0.00
0.00 0.00 0.00 0.00 0.00 0.00 0.00 0.00 0.00 0.00 0.00 0.00 0.00 0.00 0.00 0.00 0.00 0.00 0.00 0.00 0.00 0.00 0.00 0.00 0.00 0.00 0.00 0.00 0.00 0.00 0.00 0.00 0.00 0.00 0.00 0.00 0.00 0.00 0.00 0.00 0.00 0.00 0.00 0.00 0.00
0.00 0.00 0.00 0.00 0.00 0.00 0.00 0.00 0.00 0.00 0.00 0.00 0.00 0.00 0.00 0.00 0.00 0.00 0.00 0.00 0.00 0.00 0.00 0.00 0.00 0.00 0.00 0.00 0.00 0.00 0.00 0.00 0.00 0.00 0.00 0.00 0.00 0.00 0.00 0.00 0.00 0.00 0.00 0.00 0.00
0.00 0.00 0.00 0.00 0.00 0.00 0.00 0.00 0.00 0.00 0.00 0.00 0.00 0.00 0.00 0.00 0.00 0.00 0.00 0.00 0.00 0.00 0.00 0.00 0.00 0.00 0.00 0.00 0.00 0.00 0.00 0.00 0.00 0.00 0.00 0.00 0.00 0.00 0.00 0.00 0.00 0.00 0.00 0.00 0.00
0.00 0.00 0.00 0.00 0.00 0.00 0.00 0.00 0.00 0.00 0.00 0.00 0.00 0.00 0.00 0.00 0.00 0.00 0.00 0.00 0.00 0.00 0.00 0.00 0.00 0.00 0.00 0.00 0.00 0.00 0.00 0.00 0.00 0.00 0.00 0.00 0.00 0.00 0.00 0.00 0.00 0.00 0.00 0.00 0.00
0.00 0.00 0.00 0.00 0.00 0.00 0.00 0.00 0.00 0.00 0.00 0.00 0.00 0.00 0.00 0.00 0.00 0.00 0.00 0.00 0.00 0.00 0.00 0.00 0.00 0.00 0.00 0.00 0.00 0.00 0.00 0.00 0.00 0.00 0.00 0.00 0.00 0.00 0.00 0.00 0.00 0.00 0.00 0.00 0.00
0.00 0.00 0.00 0.00 0.00 0.00 0.00 0.00 0.00 0.00 0.00 0.00 0.00 0.00 0.00 0.00 0.00 0.00 0.00 0.00 0.00 0.00 0.00 0.00 0.00 0.00 0.00 0.00 0.00 0.00 0.00 0.00 0.00 0.00 0.00 0.00 0.00 0.00 0.00 0.00 0.00 0.00 0.00 0.00 0.00
0.00 0.00 0.00 0.00 0.00 0.00 0.00 0.00 0.00 0.00 0.00 0.00 0.00 0.00 0.00 0.00 0.00 0.00 0.00 0.00 0.00 0.00 0.00 0.00 0.00 0.00 0.00 0.00 0.00 0.00 0.00 0.00 0.00 0.00 0.00 0.00 0.00 0.00 0.00 0.00 0.00 0.00 0.00 0.00 0.00
0.00 0.00 0.00 0.00 0.00 0.00 0.00 0.00 0.00 0.00 0.00 0.00 0.00 0.00 0.00 0.00 0.00 0.00 0.00 0.00 0.00 0.00 0.00 0.00 0.00 0.00 0.00 0.00 0.00 0.00 0.00 0.00 0.00 0.00 0.00 0.00 0.00 0.00 0.00 0.00 0.00 0.00 0.00 0.00 0.00
0.00 0.00 0.00 0.00 0.00 0.00 0.00 0.00 0.00 0.00 0.00 0.00 0.00 0.00 0.00 0.00 0.00 0.00 0.00 0.00 0.00 0.00 0.00 0.00 0.00 0.00 0.00 0.00 0.00 0.00 0.00 0.00 0.00 0.00 0.00 0.00 0.00 0.00 0.00 0.00 0.00 0.00 0.00 0.00 0.00
0.00 0.00 0.00 0.00 0.00 0.00 0.00 0.00 0.00 0.00 0.00 0.00 0.00 0.00 0.00 0.00 0.00 0.00 0.00 0.00 0.00 0.00 0.00 0.00 0.00 0.00 0.00 0.00 0.00 0.00 0.00 0.00 0.00 0.00 0.00 0.00 0.00 0.00 0.00 0.00 0.00 0.00 0.00 0.00 0.00
0.00 0.00 0.00 0.00 0.00 0.00 0.00 0.00 0.00 0.00 0.00 0.00 0.00 0.00 0.00 0.00 0.00 0.00 0.00 0.00 0.00 0.00 0.00 0.00 0.00 0.00 0.00 0.00 0.00 0.00 0.00 0.00 0.00 0.00 0.00 0.00 0.00 0.00 0.00 0.00 0.00 0.00 0.00 0.00 0.00
0.00 0.00 0.00 0.00 0.00 0.00 0.00 0.00 0.00 0.00 0.00 0.00 0.00 0.00 0.00 0.00 0.00 0.00 0.00 0.00 0.00 0.00 0.00 0.00 0.00 0.00 0.00 0.00 0.00 0.00 0.00 0.00 0.00 0.00 0.00 0.00 0.00 0.00 0.00 0.00 0.00 0.00 0.00 0.00 0.00
MSLP
1025.56 1025.29 1024.89 1024.73 1024.37 1024.15 1023.75 1023.71 1023.45 1023.13 1023.05 1022.81 1022.55 1022.40 1022.34 1022.25 1021.89 1021.36 1021.15 1022.72 1022.07 1021.24 1020.65 1019.48 1018.85 1018.72 1018.35 1018.00 1017.98 1017.66 1016.59 1016.09 1016.67 1016.44 1016.10 1015.79 1015.24 1014.89 1014.78 1014.36 1014.54 1015.05 1015.16 1015.17 1015.31
1025.88 1025.55 1025.06 1024.91 1024.45 1024.22 1023.79 1023.75 1023.52 1023.15 1022.90 1022.73 1022.40 1022.23 1022.24 1022.24 1021.99 1021.76 1023.07 1022.46 1021.85 1021.27 1020.51 1019.88 1019.04 1018.57 1018.42 1018.56 1018.34 1017.77 1017.63 1017.91 1018.22 1017.88 1017.35 1016.82 1016.02 1015.40 1014.89 1014.75 1015.04 1015.30 1015.97 1015.70 1015.90
1026.13 1025.80 1025.40 1024.91 1024.58 1024.27 1023.80 1023.69 1023.56 1023.29 1022.91 1022.55 1022.39 1022.21 1022.22 1022.21 1021.88 1022.86 1022.84 1022.45 1021.96 1021.34 1021.12 1020.56 1019.85 1019.37 1018.94 1019.23 1019.44 1019.08 1018.85 1019.30 1019.02 1018.75 1018.48 1017.48 1016.75 1016.45 1015.68 1015.69 1016.25 1016.37 1016.48 1016.68 1016.59
1026.23 1025.98 1025.57 1025.00 1024.79 1024.41 1023.86 1023.66 1023.63 1023.44 1023.12 1022.59 1022.38 1022.23 1022.11 1022.05 1023.27 1023.47 1023.30 1022.67 1022.13 1021.51 1021.00 1020.48 1019.82 1019.61 1020.05 1020.13 1020.57 1019.90 1020.35 1020.31 1019.97 1019.55 1019.02 1018.17 1017.76 1017.60 1017.60 1017.80 1017.33 1017.00 1016.77 1017.72 1017.52
1026.02 1026.17 1025.71 1025.21 1024.84 1024.45 1024.04 1023.78 1023.69 1023.47 1023.12 1022.64 1022.39 1022.34 1022.21 1022.48 1023.85 1023.70 1023.45 1022.90 1022.31 1021.75 1021.34 1020.92 1020.62 1020.63 1020.72 1021.12 1021.01 1020.95 1021.27 1020.84 1020.55 1019.98 1019.44 1018.84 1018.34 1018.47 1018.80 1018.81 1017.80 1017.72 1017.96 1018.42 1018.28
1026.11 1026.13 1025.83 1025.26 1024.85 1024.50 1024.12 1023.91 1023.69 1023.59 1023.25 1022.80 1022.34 1022.32 1022.18 1023.24 1024.11 1023.83 1023.56 1023.08 1022.65 1022.22 1021.98 1021.67 1021.93 1021.83 1021.74 1021.92 1021.50 1021.82 1021.61 1021.26 1020.68 1020.18 1019.93 1019.51 1019.15 1019.09 1019.79 1019.99 1018.89 1019.02 1019.35 1019.87 1019.98
1026.13 1026.23 1025.94 1025.29 1024.90 1024.51 1024.17 1024.05 1023.83 1023.64 1023.38 1022.99 1022.65 1022.50 1022.65 1024.35 1024.10 1023.82 1023.49 1023.03 1022.97 1022.69 1022.44 1022.70 1022.53 1021.85 1022.17 1022.28 1022.62 1022.14 1021.61 1021.20 1021.09 1020.77 1020.51 1020.31 1020.06 1021.26 1021.76 1020.83 1020.36 1020.23 1020.96 1021.09 1021.10
1026.20 1026.19 1025.93 1025.32 1024.98 1024.61 1024.16 1023.99 1023.87 1023.50 1023.28 1023.05 1022.88 1022.81 1023.76 1024.30 1024.18 1023.95 1023.61 1023.34 1023.13 1023.13 1023.06 1023.01 1022.80 1022.48 1022.37 1022.74 1022.44 1022.12 1021.85 1021.27 1021.89 1021.53 1021.06 1020.87 1021.26 1022.46 1022.44 1021.80 1021.62 1021.72 1021.69 1022.08 1022.50
1026.25 1026.22 1025.82 1025.35 1024.95 1024.55 1024.21 1024.19 1024.03 1023.73 1023.47 1023.09 1022.84 1022.95 1024.25 1024.37 1024.28 1024.43 1024.23 1023.85 1023.44 1023.15 1022.91 1022.75 1022.58 1023.07 1022.82 1022.26 1021.97 1022.00 1021.95 1022.30 1022.24 1022.54 1022.02 1021.45 1022.45 1023.62 1023.30 1022.84 1022.67 1022.70 1022.80 1022.82 1022.71
1026.27 1026.25 1025.81 1025.37 1025.02 1024.43 1024.13 1024.09 1023.97 1023.86 1023.55 1023.48 1023.52 1023.91 1024.98 1025.54 1025.21 1024.75 1024.30 1024.14 1023.75 1023.23 1022.87 1022.96 1023.27 1023.22 1023.37 1022.43 1022.99 1023.05 1022.82 1023.12 1023.12 1023.62 1023.15 1023.05 1023.76 1024.22 1024.11 1023.61 1023.57 1023.58 1023.47 1023.43 1023.49
1026.33 1026.27 1025.90 1025.51 1025.15 1024.53 1024.14 1024.33 1024.64 1024.58 1024.91 1026.06 1026.21 1025.86 1026.13 1025.89 1025.56 1024.97 1024.70 1024.18 1023.71 1023.78 1023.88 1024.14 1023.72 1024.55 1025.04 1024.81 1024.49 1024.30 1023.90 1023.74 1024.09 1024.29 1023.95 1024.16 1024.36 1024.61 1024.67 1024.36 1024.29 1024.31 1024.29 1024.22 1024.19
1026.43 1026.15 1025.89 1025.65 1025.28 1024.74 1024.50 1025.64 1026.54 1026.55 1026.73 1026.83 1026.77 1026.39 1026.42 1026.49 1025.79 1025.20 1024.83 1024.71 1024.82 1024.59 1024.80 1024.75 1025.23 1026.11 1026.05 1025.62 1025.12 1024.83 1024.49 1024.35 1024.61 1024.68 1024.22 1024.55 1024.59 1024.86 1025.00 1025.15 1025.30 1025.29 1025.14 1025.16 1025.14
1026.37 1026.14 1025.81 1025.68 1025.47 1025.43 1025.85 1027.07 1027.30 1027.10 1026.47 1027.23 1027.25 1026.96 1027.07 1026.95 1026.87 1026.46 1026.12 1026.24 1026.09 1026.01 1025.66 1025.53 1026.84 1026.59 1026.15 1025.99 1025.59 1025.49 1025.44 1025.15 1025.09 1024.84 1024.79 1024.53 1024.15 1024.36 1024.92 1025.14 1025.47 1025.79 1025.89 1025.89 1025.88
1026.26 1026.23 1025.86 1025.44 1025.75 1026.59 1026.93 1027.42 1027.24 1027.35 1027.05 1027.90 1027.28 1027.29 1027.12 1026.87 1027.09 1027.19 1027.03 1026.98 1026.83 1027.09 1026.93 1026.91 1027.19 1026.98 1026.55 1026.49 1026.54 1026.02 1026.15 1025.81 1025.35 1024.78 1024.10 1024.62 1023.41 1023.75 1024.35 1024.81 1025.31 1025.84 1026.15 1026.28 1026.27
1026.27 1026.26 1026.12 1025.35 1026.14 1026.80 1027.59 1027.45 1027.27 1027.32 1027.65 1028.57 1027.68 1027.40 1027.15 1027.04 1027.74 1027.35 1027.58 1026.89 1027.66 1027.79 1027.74 1027.85 1027.54 1027.49 1026.99 1027.14 1027.16 1026.63 1026.49 1025.92 1025.47 1024.84 1024.46 1024.28 1024.01 1023.37 1024.37 1024.68 1025.34 1026.01 1026.52 1026.67 1026.73
1026.35 1026.23 1026.04 1026.35 1026.71 1027.47 1027.47 1027.27 1027.24 1027.48 1027.92 1028.41 1028.28 1027.87 1027.79 1027.71 1027.55 1027.40 1027.53 1027.62 1028.13 1027.89 1027.79 1028.27 1028.41 1028.27 1027.97 1027.52 1027.45 1027.19 1026.58 1026.01 1025.59 1025.11 1024.63 1024.42 1024.36 1023.55 1024.37 1025.46 1025.83 1026.36 1026.84 1027.03 1027.03
1026.56 1026.45 1026.33 1026.79 1027.59 1027.75 1027.62 1027.08 1027.28 1027.56 1029.43 1028.89 1028.64 1028.59 1028.62 1028.77 1028.51 1028.28 1028.46 1028.78 1028.93 1028.77 1029.02 1028.82 1028.53 1028.52 1028.55 1027.69 1027.50 1027.19 1026.64 1025.85 1025.65 1025.17 1024.58 1024.87 1024.75 1023.95 1025.22 1026.15 1026.74 1026.93 1027.07 1027.17 1027.21
1026.53 1026.49 1027.41 1027.57 1027.78 1027.71 1027.38 1027.13 1027.59 1028.72 1028.87 1029.16 1028.99 1028.87 1028.95 1029.40 1029.21 1029.08 1029.18 1029.72 1030.15 1030.00 1030.29 1030.05 1029.28 1029.17 1028.96 1028.91 1028.73 1028.10 1027.55 1027.03 1026.45 1025.97 1025.22 1025.10 1024.48 1024.74 1025.77 1026.56 1026.96 1027.24 1027.30 1027.24 1027.17
1026.73 1027.04 1027.37 1027.69 1027.72 1027.47 1027.30 1027.81 1028.18 1028.52 1028.56 1028.78 1029.18 1029.03 1029.24 1029.38 1029.48 1029.15 1029.46 1029.98 1030.89 1030.77 1030.96 1030.87 1030.28 1030.02 1029.90 1029.35 1029.45 1028.61 1028.40 1028.42 1027.74 1027.62 1026.56 1024.97 1024.60 1025.43 1026.07 1026.49 1026.83 1027.01 1027.08 1027.03 1027.11
1026.74 1027.31 1027.79 1027.85 1027.67 1027.32 1027.45 1028.50 1028.82 1029.02 1029.17 1029.02 1029.25 1029.44 1029.17 1029.28 1029.43 1029.29 1029.52 1030.29 1030.67 1030.79 1030.98 1031.59 1031.37 1030.39 1030.13 1029.83 1029.54 1029.21 1029.04 1028.62 1027.96 1027.40 1026.17 1025.22 1025.02 1024.81 1025.78 1026.12 1026.57 1026.85 1026.92 1026.93 1027.02
1026.63 1027.35 1028.00 1027.96 1027.62 1027.28 1028.25 1029.05 1029.22 1029.38 1029.43 1029.50 1029.30 1029.46 1029.47 1029.51 1029.56 1029.55 1029.96 1030.38 1030.55 1031.13 1031.41 1031.44 1031.87 1030.97 1030.53 1030.25 1030.16 1029.58 1029.14 1028.84 1028.59 1028.23 1027.48 1026.58 1024.97 1025.61 1025.99 1026.29 1026.57 1026.85 1027.09 1027.14 1027.14
1026.51 1027.77 1028.09 1027.93 1028.06 1028.78 1028.95 1029.17 1029.31 1029.42 1029.55 1029.69 1029.45 1029.23 1029.25 1029.61 1029.88 1029.84 1029.75 1030.10 1030.59 1030.71 1031.03 1031.47 1031.75 1031.27 1030.97 1030.84 1030.74 1030.63 1029.90 1029.55 1028.87 1028.96 1028.56 1028.09 1026.15 1026.03 1026.29 1026.63 1027.01 1027.07 1027.29 1027.33 1027.55
1026.68 1027.93 1028.12 1027.98 1028.18 1029.01 1029.50 1029.42 1029.19 1029.43 1029.47 1029.59 1029.68 1029.49 1029.81 1029.93 1030.18 1030.19 1029.99 1030.56 1030.74 1030.79 1030.75 1031.17 1031.62 1031.61 1031.16 1031.32 1030.86 1030.79 1030.15 1029.87 1029.83 1029.51 1028.68 1028.19 1026.27 1026.33 1026.55 1026.91 1027.10 1027.27 1027.51 1027.76 1027.92
1026.43 1027.88 1028.41 1028.22 1028.21 1027.90 1028.52 1028.96 1029.22 1029.34 1029.29 1029.46 1029.46 1029.70 1030.11 1030.36 1030.58 1030.46 1030.34 1030.94 1030.72 1030.81 1031.21 1031.39 1032.21 1031.97 1031.45 1030.82 1030.96 1031.09 1030.55 1030.09 1030.05 1029.40 1028.39 1027.46 1026.53 1026.31 1026.37 1026.80 1027.02 1027.37 1027.65 1028.08 1028.24
1025.79 1026.80 1027.11 1028.30 1028.15 1027.86 1027.57 1028.14 1028.45 1029.10 1029.41 1029.45 1029.35 1029.11 1029.43 1030.15 1030.48 1030.66 1030.53 1031.01 1030.99 1030.93 1031.38 1031.79 1031.95 1032.43 1031.81 1031.31 1031.29 1030.77 1030.35 1030.01 1029.76 1028.93 1028.40 1027.22 1026.99 1025.91 1025.91 1026.36 1026.78 1026.95 1027.38 1027.75 1027.97
1025.02 1026.02 1026.93 1027.21 1027.27 1027.61 1027.43 1027.94 1027.77 1028.43 1028.82 1029.28 1029.22 1028.68 1029.33 1029.45 1029.57 1029.97 1030.37 1030.53 1030.33 1031.16 1031.55 1032.03 1032.21 1032.70 1032.05 1031.62 1031.28 1030.46 1029.73 1029.57 1029.30 1028.62 1027.68 1027.11 1026.08 1024.70 1024.90 1025.34 1026.26 1026.31 1026.73 1027.19 1027.51
1024.26 1024.79 1024.93 1026.87 1027.11 1027.39 1027.17 1027.02 1027.38 1027.82 1028.58 1028.59 1029.06 1028.97 1029.49 1029.42 1029.72 1029.96 1030.52 1030.35 1030.17 1030.79 1031.41 1031.91 1032.11 1032.51 1031.78 1031.19 1030.55 1029.50 1027.44 1027.75 1027.29 1026.81 1026.46 1026.03 1024.59 1024.39 1024.80 1025.21 1025.47 1025.63 1026.07 1026.41 1026.80
Thickness
5646 5649 5653 5653 5656 5657 5660 5658 5658 5660 5659 5659 5660 5659 5658 5656 5655 5658 5657 5640 5643 5644 5645 5650 5648 5642 5638 5631 5626 5621 5615 5609 5600 5605 5610 5622 5624 5636 5640 5643 5647 5648 5653 5660 5665
5641 5645 5650 5650 5654 5654 5657 5656 5656 5659 5660 5658 5659 5659 5657 5654 5653 5652 5638 5640 5640 5639 5641 5639 5638 5634 5624 5616 5613 5610 5601 5590 5587 5590 5594 5603 5614 5620 5630 5634 5636 5642 5642 5653 5655
5638 5640 5644 5648 5650 5652 5656 5655 5655 5656 5659 5659 5657 5657 5655 5653 5654 5640 5637 5636 5634 5635 5631 5629 5625 5621 5615 5606 5595 5593 5588 5580 5581 5581 5580 5591 5601 5609 5617 5619 5622 5626 5634 5639 5645
5635 5637 5641 5645 5646 5649 5654 5654 5653 5653 5654 5657 5656 5656 5655 5652 5644 5633 5630 5630 5630 5630 5627 5625 5622 5615 5600 5591 5581 5582 5573 5567 5567 5568 5570 5579 5587 5589 5593 5597 5613 5622 5631 5622 5629
5635 5633 5637 5641 5645 5648 5650 5651 5651 5651 5653 5655 5656 5654 5651 5644 5629 5628 5626 5626 5624 5624 5620 5616 5611 5603 5592 5580 5576 5570 5561 5560 5558 5559 5564 5571 5577 5577 5577 5583 5605 5612 5611 5610 5616
5632 5631 5635 5640 5643 5646 5648 5650 5650 5649 5650 5652 5655 5652 5649 5635 5626 5625 5623 5622 5620 5619 5614 5608 5596 5587 5579 5569 5569 5556 5553 5552 5555 5554 5556 5561 5568 5573 5567 5568 5590 5594 5592 5591 5593
5629 5628 5631 5637 5641 5644 5646 5646 5647 5647 5648 5648 5649 5647 5644 5626 5625 5623 5621 5620 5615 5611 5607 5595 5588 5588 5573 5564 5553 5549 5547 5550 5547 5547 5549 5552 5556 5544 5544 5560 5570 5577 5574 5578 5582
5626 5626 5628 5635 5637 5641 5644 5644 5644 5647 5646 5646 5645 5642 5630 5624 5622 5619 5617 5614 5609 5604 5597 5590 5583 5577 5567 5555 5553 5548 5545 5548 5537 5538 5543 5548 5547 5533 5536 5549 5553 5556 5565 5567 5565
5622 5622 5626 5631 5635 5638 5641 5640 5641 5642 5642 5644 5644 5641 5626 5622 5618 5611 5608 5605 5603 5600 5596 5590 5583 5568 5562 5561 5560 5552 5546 5535 5535 5530 5532 5542 5531 5520 5528 5536 5540 5545 5548 5552 5557
5618 5618 5624 5627 5631 5636 5638 5639 5639 5638 5639 5637 5636 5636 5619 5609 5607 5606 5604 5601 5598 5598 5597 5587 5576 5570 5558 5564 5546 5538 5538 5529 5526 5519 5523 5523 5513 5513 5518 5527 5530 5536 5541 5545 5546
5615 5615 5619 5623 5626 5632 5635 5634 5636 5636 5627 5613 5608 5609 5607 5606 5602 5603 5599 5599 5599 5594 5586 5574 5572 5550 5538 5534 5532 5528 5528 5525 5518 5514 5515 5511 5509 5507 5510 5517 5520 5525 5529 5534 5536
5610 5613 5616 5618 5621 5629 5629 5622 5614 5618 5613 5605 5602 5605 5602 5597 5601 5600 5595 5595 5589 5584 5575 5576 5557 5539 5529 5529 5530 5528 5526 5523 5515 5510 5515 5507 5505 5502 5504 5502 5504 5508 5516 5519 5523
5608 5609 5613 5614 5616 5619 5616 5608 5605 5605 5621 5603 5596 5598 5595 5592 5586 5585 5582 5575 5575 5572 5572 5567 5545 5535 5534 5528 5528 5522 5516 5514 5507 5508 5504 5505 5511 5508 5501 5504 5502 5501 5504 5508 5510
5604 5604 5609 5613 5613 5605 5606 5600 5602 5601 5614 5600 5600 5593 5593 5588 5585 5575 5571 5571 5567 5562 5556 5552 5539 5533 5533 5523 5516 5522 5505 5503 5501 5507 5517 5499 5522 5512 5505 5506 5504 5499 5498 5498 5501
5598 5600 5603 5609 5604 5603 5597 5596 5597 5598 5615 5589 5591 5586 5586 5589 5574 5576 5564 5571 5560 5551 5551 5547 5538 5532 5531 5515 5507 5516 5501 5503 5503 5506 5506 5503 5508 5518 5501 5507 5502 5495 5490 5491 5492
5590 5594 5598 5597 5595 5591 5592 5594 5594 5606 5611 5577 5575 5576 5582 5576 5575 5572 5566 5560 5550 5554 5552 5537 5525 5522 5518 5511 5504 5500 5501 5502 5501 5501 5505 5499 5502 5518 5508 5492 5493 5489 5484 5484 5484
5583 5587 5590 5589 5588 5584 5585 5592 5597 5605 5562 5578 5572 5567 5564 5561 5564 5560 5553 5546 5546 5555 5530 5534 5533 5521 5510 5518 5510 5502 5499 5519 5517 5513 5517 5492 5498 5513 5490 5481 5477 5477 5477 5479 5480
5576 5579 5575 5576 5577 5578 5582 5594 5599 5550 5561 5555 5560 5561 5564 5551 5554 5552 5549 5546 5530 5521 5519 5525 5547 5518 5509 5500 5489 5489 5491 5498 5511 5511 5510 5493 5509 5509 5485 5475 5474 5472 5473 5475 5477
5566 5568 5567 5568 5570 5573 5586 5580 5584 5568 5563 5566 5555 5563 5554 5549 5548 5552 5543 5538 5514 5516 5529 5521 5524 5509 5499 5496 5486 5484 5478 5475 5475 5454 5472 5507 5508 5487 5478 5478 5476 5474 5474 5475 5474
5559 5558 5558 5560 5563 5570 5569 5578 5555 5551 5552 5556 5566 5549 5558 5551 5550 5550 5543 5531 5524 5519 5511 5500 5517 5495 5501 5494 5490 5484 5476 5482 5483 5489 5508 5512 5502 5516 5491 5488 5480 5477 5476 5474 5472
5552 5554 5549 5551 5555 5569 5564 5555 5543 5542 5545 5547 5542 5542 5550 5543 5539 5539 5533 5526 5524 5513 5509 5505 5495 5509 5495 5493 5485 5489 5481 5480 5479 5477 5488 5488 5523 5489 5488 5484 5478 5476 5472 5470 5468
5544 5537 5540 5542 5546 5514 5544 5534 5541 5540 5537 5537 5536 5538 5548 5535 5532 5531 5535 5527 5519 5519 5514 5505 5498 5510 5498 5484 5476 5476 5479 5477 5486 5474 5469 5470 5509 5486 5481 5479 5473 5474 5470 5468 5463
5526 5527 5530 5534 5543 5532 5517 5532 5538 5535 5534 5533 5534 5533 5527 5525 5530 5523 5527 5516 5514 5516 5516 5509 5500 5525 5510 5492 5484 5476 5484 5482 5469 5465 5468 5485 5520 5479 5478 5472 5473 5472 5468 5462 5460
5523 5518 5516 5522 5523 5536 5526 5527 5528 5526 5529 5527 5528 5524 5520 5510 5510 5515 5519 5509 5511 5513 5506 5505 5479 5502 5538 5521 5492 5468 5468 5480 5472 5478 5482 5487 5497 5489 5478 5471 5472 5467 5462 5457 5454
5515 5514 5516 5518 5520 5525 5536 5532 5531 5520 5520 5520 5524 5530 5529 5506 5496 5504 5512 5506 5506 5508 5501 5501 5498 5462 5475 5484 5477 5478 5477 5472 5473 5485 5478 5483 5465 5490 5485 5480 5474 5472 5468 5463 5459
5509 5507 5506 5509 5514 5521 5525 5524 5535 5522 5521 5518 5520 5531 5521 5525 5526 5510 5510 5511 5517 5500 5501 5491 5497 5466 5468 5463 5471 5475 5480 5467 5464 5473 5480 5481 5485 5505 5497 5489 5471 5474 5470 5467 5464
5506 5508 5522 5503 5505 5513 5514 5523 5527 5526 5515 5519 5516 5518 5511 5518 5512 5508 5502 5505 5513 5507 5499 5494 5488 5482 5513 5456 5453 5498 5496 5489 5494 5490 5489 5484 5503 5502 5491 5487 5483 5483 5478 5471 5473